User: anonymous   Login
Location: Newark
(44.6028°N, 124.0883°W)
Time: 10:30:12
(UTC+00:00)
Language:

Transit 4A - Orbit

View from above orbital plane
View from above orbital plane
View from above satellite
View from above satellite

Ground track
Ground track

The orbit data is extracted from the following two-line orbital elements,

1   116U 61015A   19295.89373060 -.00000040 +00000-0 +28486-4 0  9990
2   116 066.8100 071.3839 0075932 181.1675 178.9240 13.91760229958628
Epoch (UTC): 22 October 2019 21:26:58
Eccentricity: 0.0075932
inclination: 66.8100°
perigee height: 867 km
apogee height: 978 km
right ascension of ascending node: 71.3839°
argument of perigee: 181.1675°
revolutions per day: 13.91760229
mean anomaly at epoch: 178.9240°
orbit number at epoch: 95862

The dashed part of the orbit path shows where the satellite is in the earth's shadow,  

DLR